Погода в Ишиме

Погода в Ишиме : погода сейчас, прогноз погоды и архив. Всё, что Вы хотите узнать о погоде в Ишиме!

Хотите узнать прогноз погоды в Ишиме? Тогда Вам сюда: Погода в Ишиме

Поиск расширенной информации на нашем сайте:

Другие новости

Новости СМИ2

Главная страница сайта

Новости сайта

03.07.2017

Напоминаем, что на нашем специализированном сайте Метеоцентр.Азия вы можете получить высокодетализированные автоматические прогнозы погоды по пунктам России, СНГ и мира в авиационном формате (включающие направление и скорость ветра, видимость, явления погоды, количество и форму облачности, нижнюю и верхнюю границу облачности).


Погода в Ишиме - сегодня

Время (UTC), дата Ветер
(°,м/с) 
Видим.   Явления Облачность Т
(°С)
Тd
(°С)
f(%) Тe
(°С)
Pmin
(гПа)
dP
(гПа)
Po
(мм)
O2
(г/м3)
Тmin Tmax R s Состояние
почвы
21 20.11.17 190 (Ю) 10 км    8/0 средняя 
[Ac trans]
-1.3 -2.6 91 -3  1028.6  -0.4  764  309           
00 21.11.17 210 (ЮЗ) 10 км    ясно 
-1.1 -2.6 90 -3  1028.6  764  309           
03 21.11.17 210 (ЮЗ) 10 км    9/9 1000 м 
[Sc]
-0.7 -2.8 86 -3  1028.4  -0.2  763  309  -2.6      равномерный
сухой снег
100% 
06 21.11.17 200 (Ю) 20000 м    9/0 средняя 
[Ac trans]
+0 -3 80 -2  1028.5  0.1  764  308           
09 21.11.17 210 (ЮЗ) 20000 м    9/5 1000 м средняя 
[Sc|Ac trans]
+0.8 -3.2 75 -2  1028.8  0.4  764  307           
12 21.11.17 210 (ЮЗ) 10 км    10/10 1000 м 
[Sc]
+1.9 -4.4 63 1029.1  0.3  764  306           
15 21.11.17 200 (Ю) 10 км    9/9 600 м 
[Sc]
+1 -4.3 68 -1  1029.3  0.1  764  307    +2       
18 21.11.17 170 (Ю) 10 км    ясно 
-3 -5.8 81 -4  1029.5  764  312           
21 21.11.17 200 (Ю) 10 км    8/0 средняя 
[Ac trans]
-3.6 -6.5 80 -5  1029.1  -0.4  764  313           
00 22.11.17 180 (Ю) 10 км    ясно 
-3.2 -7 75 -4  1028.1  -1  763  312           
03 22.11.17 190 (Ю) 10 км    10/0 средняя, верхняя 
[Ac lent|Cs]
-2.9 -7.2 72 -5  1027.5  -0.6  763  311  -4.4      равномерный
мокрый или
старый снег
100% 
06 22.11.17 190 (Ю) 20000 м    6/0 средняя, верхняя 
[Ac trans|Ci fib]
-1.6 -7 67 -4  1027.1  -0.3  762  310           
09 22.11.17 180 (Ю) 20000 м    3/0 верхняя 
[Ci fib]
+0 -6.2 63 -1  1026.3  -0.8  762  308           
12 22.11.17 170 (Ю) 10 км    3/0 средняя 
[Ac trans]
-1.5 -6 71 -2  1025.9  -0.5  761  309           
15 22.11.17 190 (Ю) 10 км    9/0 средняя 
[Ac trans]
-0.8 -5.8 69 -2  1025.3  -0.5  761  308    +0.8       
18 22.11.17 200 (Ю) 10 км    ясно 
-1.7 -6.5 70 -3  1025  -0.3  761  309           
21 22.11.17 200 (Ю) 10 км    9/0 средняя 
[Ac trans]
-2.5 -7.4 69 -5  1024.9  0.1  761  310           
00 23.11.17 190 (Ю) 10 км    ясно 
-4.2 -8.3 73 -4  1025  0.1  761  312           
03 23.11.17 210 (ЮЗ) 10 км    3/3 1000 м 
[Sc]
-5 -8.1 79 -5  1025.3  0.2  761  313  -5.1      равномерный
мокрый или
старый снег
100% 
06 23.11.17 200 (Ю) 20000 м    3/0 средняя 
[Ac trans]
-2 -7.2 68 -3  1025.6  0.5  761  310  -5.1         
09 23.11.17 190 (Ю) 20000 м    1/0 средняя 
[Ac lent]
+2.9 -6.1 52 +2  1025.3  0.1  761  304           
12 23.11.17 тихо ()   10 км    ясно 
-3.2 -6.2 80 -3  1025.7  0.1  761  311           
15 23.11.17 160 (Ю) 10 км    ясно 
-5 -7.1 85 -5  1025.7  -0.1  761  313    +3       
18 23.11.17 200 (Ю) 10 км    ясно 
-2.1 -7.7 65 -3  1025.4  0.1  761  310           
21 23.11.17 170 (Ю) 10 км    ясно 
-4.4 -8.2 75 -4  1024.9  -0.7  761  312           
Время (UTC), дата Ветер
(°,м/с) 
Видим.   Явления Облачность Т
(°С)
Тd
(°С)
f(%) Тe
(°С)
Pmin
(гПа)
dP
(гПа)
Po
(мм)
O2
(г/м3)
Тmin Tmax R s Состояние
почвы

Для получения пояснительной информации подведите курсор к названию столбца.

ПОГОДА в Ишиме - архив

Всё, что Вы хотите узнать о погоде в Ишиме - удобно и подробно!

Выберите нужную дату (начиная с 1 января 2015* года) и нажмите кнопку "Найти".
Будут отображены архивные сводки погоды по пункту Ишим, начиная с указанной даты.


Отображать данные в формате CSV (для использования в таблицах Excel)


Внимание! Наш архив погоды предназначен исключительно для личного некоммерческого использования в познавательных целях. Если Вам необходимы официальные справки о состоянии погоды (для производственных, юридических, коммерческих и т.п. целей), обращайтесь в органы Росгидромета.

*Примечание: данная дата относится к архиву по метеостанциям СССР (Россия, СНГ, Балтия).
Архив по метеостанциям Зарубежной Европы и Азии (кроме Китая) хранится 10 дней, по другим регионам земного шара (Китай, Африка, Америка, Австралия, Океания) - 1 день.

Ишим - район местоположения метеостанции


Название, широта, долгота, высота метеостанции:
Ишим 56.1°ш. 69.4°д. 82 м над ур. моря [Российская Федерация]

Дополнительная информация

В oтличие oт бoльшинства пoгoдных сайтoв мы публикуем пoдрoбную метеoинфoрмацию в детальнoм прoфессиoнальнoм фoрмате.

Характеристики температуры и влажнoсти вoздуха измеряются на высoте 2 м в тени вдали oт зданий и деревьев.
Скoрoсть ветра измеряется на высoте 10 м (на урoвне рoста челoвека скoрoсть ветра ниже в 1.5-2 раза). Если метеoстанция нахoдится в гoрoде или в лесу, тo скoрoсть ветра занижена на 2-4 м/с пo сравнению с oткрытым местoм. Скoрoсть ветра над акватoриями крупных рек и oзёр, а также на вершинах хoлмoв на 2-5 м/с выше, чем в oбычных услoвиях.
Атмoсфернoе давление в разных тoчках местнoсти мoжет значительнo oтличаться oт давления на метеoстанции, в зависимoсти oт услoвий рельефа (при пoдъёме на 10 м давление пoнижается примернo на 1 мм рт.ст.).